Location: Proctor
(47.8934°N, 114.3048°W)
Time: 05:12:38
(UTC+00:00)

Envisat - Pass Details

Date: 26 May 2024
Orbit: 762 x 764 km, 98.3° (Epoch: 13 June)

Event Time Altitude Azimuth Distance (km) Brightness Sun altitude
Rises 09:39:50 0° 28° (NNE) 3,238 8.2 -15.4°
Reaches altitude 10° 09:43:01 10° 49° (NE) 2,306 6.7 -15.1°
Maximum altitude 09:46:13 17° 89° (E) 1,874 5.4 -14.8°
Drops below altitude 10° 09:49:26 10° 128° (SE) 2,294 5.4 -14.5°
Sets 09:52:33 0° 149° (SSE) 3,214 6.0 -14.2°
